AUA1M LOWW-LOWI

Flight info

Callsign AUA1M
Flight time 0h 53m
Altitude 28000
Route SOVIL DCT SITNI DCT BAGSI DCT NANIT NANIT2A
Aircraft A319/M-SDE3FGHIRWY/LB1

Departure

Time 2026-04-26 12:06
Airport Vienna International Airport (LOWW)

Arrival

Time 2026-04-26 12:59
Airport Innsbruck Airport (LOWI)
Time Latitude Longitude Altitude Speed Heading
2026-04-26 10:39 48.11984 16.55596 610 ft 0 kts 100°
2026-04-26 11:54 48.11987 16.55563 616 ft 4 kts 95°
2026-04-26 11:54 48.11990 16.55523 610 ft 4 kts 103°
2026-04-26 11:55 48.11995 16.55498 620 ft 4 kts 181°
2026-04-26 11:55 48.12014 16.55509 623 ft 4 kts 206°
2026-04-26 11:55 48.12022 16.55515 613 ft 0 kts 206°
2026-04-26 11:57 48.12018 16.55512 621 ft 2 kts 206°
2026-04-26 11:58 48.12001 16.55500 617 ft 4 kts 206°
2026-04-26 11:58 48.11997 16.55496 624 ft 0 kts 206°
2026-04-26 11:58 48.11978 16.55483 612 ft 5 kts 206°
2026-04-26 11:58 48.11940 16.55455 616 ft 7 kts 205°
2026-04-26 11:59 48.11894 16.55429 610 ft 8 kts 191°
2026-04-26 11:59 48.11840 16.55418 610 ft 5 kts 189°
2026-04-26 11:59 48.11806 16.55439 617 ft 7 kts 128°
2026-04-26 11:59 48.11782 16.55515 616 ft 10 kts 116°
2026-04-26 12:00 48.11748 16.55619 610 ft 12 kts 116°
2026-04-26 12:00 48.11712 16.55729 622 ft 12 kts 116°
2026-04-26 12:00 48.11674 16.55847 625 ft 13 kts 116°
2026-04-26 12:00 48.11633 16.55973 610 ft 14 kts 116°
2026-04-26 12:01 48.11589 16.56106 615 ft 15 kts 116°
2026-04-26 12:01 48.11544 16.56247 622 ft 15 kts 116°
2026-04-26 12:01 48.11496 16.56395 616 ft 16 kts 116°
2026-04-26 12:01 48.11445 16.56550 610 ft 17 kts 116°
2026-04-26 12:02 48.11392 16.56711 619 ft 18 kts 116°
2026-04-26 12:02 48.11355 16.56824 617 ft 18 kts 116°
2026-04-26 12:02 48.11280 16.57055 617 ft 19 kts 116°
2026-04-26 12:02 48.11221 16.57238 614 ft 20 kts 116°
2026-04-26 12:03 48.11159 16.57427 610 ft 21 kts 116°
2026-04-26 12:03 48.11108 16.57583 616 ft 11 kts 116°
2026-04-26 12:03 48.11050 16.57651 620 ft 12 kts 187°
2026-04-26 12:03 48.11016 16.57627 616 ft 0 kts 207°
2026-04-26 12:04 48.11002 16.57617 610 ft 6 kts 206°
2026-04-26 12:04 48.10957 16.57584 613 ft 8 kts 206°
2026-04-26 12:05 48.10914 16.57538 616 ft 6 kts 261°
2026-04-26 12:05 48.10935 16.57474 614 ft 8 kts 296°
2026-04-26 12:05 48.10987 16.57314 615 ft 46 kts 296°
2026-04-26 12:05 48.11244 16.56522 620 ft 121 kts 295°
2026-04-26 12:06 48.11698 16.55126 811 ft 159 kts 295°
2026-04-26 12:06 48.12022 16.53644 1838 ft 149 kts 278°
2026-04-26 12:06 48.11880 16.52117 2823 ft 147 kts 250°
2026-04-26 12:06 48.11296 16.50891 3632 ft 145 kts 219°
2026-04-26 12:07 48.10458 16.49980 4020 ft 164 kts 232°
2026-04-26 12:07 48.10083 16.48298 4211 ft 185 kts 268°
2026-04-26 12:07 48.09874 16.46262 4649 ft 214 kts 263°
2026-04-26 12:07 48.09125 16.44126 5221 ft 251 kts 239°
2026-04-26 12:08 48.08037 16.41994 6130 ft 261 kts 239°
2026-04-26 12:08 48.06933 16.39835 7247 ft 263 kts 240°
2026-04-26 12:08 48.05816 16.37631 8228 ft 269 kts 240°
2026-04-26 12:08 48.04688 16.35370 9208 ft 274 kts 240°
2026-04-26 12:09 48.03790 16.32857 10130 ft 275 kts 256°
2026-04-26 12:09 48.03347 16.30065 10746 ft 286 kts 269°
2026-04-26 12:09 48.03351 16.26989 11133 ft 306 kts 276°
2026-04-26 12:09 48.03427 16.23742 11784 ft 317 kts 276°
2026-04-26 12:10 48.03495 16.20413 12615 ft 323 kts 276°
2026-04-26 12:10 48.03558 16.17036 13484 ft 328 kts 275°
2026-04-26 12:10 48.03618 16.13607 14306 ft 332 kts 276°
2026-04-26 12:10 48.03674 16.10133 15017 ft 337 kts 275°
2026-04-26 12:11 48.03726 16.06605 15739 ft 342 kts 275°
2026-04-26 12:11 48.03781 16.03021 16478 ft 347 kts 276°
2026-04-26 12:11 48.03837 15.99399 17203 ft 352 kts 276°
2026-04-26 12:11 48.03893 15.95723 17909 ft 357 kts 276°
2026-04-26 12:12 48.03952 15.91982 18583 ft 362 kts 276°
2026-04-26 12:12 48.04010 15.88195 19191 ft 367 kts 275°
2026-04-26 12:12 48.04064 15.84366 19854 ft 370 kts 275°
2026-04-26 12:12 48.04098 15.81804 20293 ft 372 kts 275°
2026-04-26 12:13 48.04166 15.76612 21208 ft 375 kts 274°
2026-04-26 12:13 48.04217 15.72688 21884 ft 378 kts 274°
2026-04-26 12:13 48.04268 15.68750 22561 ft 381 kts 274°
2026-04-26 12:13 48.04319 15.64775 23206 ft 384 kts 274°
2026-04-26 12:14 48.04368 15.60773 23824 ft 387 kts 273°
2026-04-26 12:14 48.04419 15.56744 24332 ft 389 kts 273°
2026-04-26 12:14 48.04454 15.54055 24667 ft 391 kts 273°
2026-04-26 12:14 48.04504 15.49986 25150 ft 394 kts 273°
2026-04-26 12:15 48.04551 15.45871 25621 ft 397 kts 273°
2026-04-26 12:15 48.04609 15.40383 26236 ft 401 kts 272°
2026-04-26 12:15 48.04638 15.37572 26528 ft 403 kts 272°
2026-04-26 12:15 48.04692 15.33357 26958 ft 407 kts 273°
2026-04-26 12:16 48.04761 15.29118 27419 ft 410 kts 273°
2026-04-26 12:16 48.04837 15.24848 27869 ft 412 kts 273°
2026-04-26 12:16 48.04911 15.20545 28161 ft 415 kts 273°
2026-04-26 12:17 48.05043 15.12064 28215 ft 407 kts 273°
2026-04-26 12:17 48.05161 15.03619 28213 ft 406 kts 272°
2026-04-26 12:18 48.05275 14.95170 28213 ft 407 kts 272°
2026-04-26 12:18 48.05378 14.86721 28214 ft 407 kts 272°
2026-04-26 12:19 48.05471 14.78266 28218 ft 407 kts 272°
2026-04-26 12:19 48.05540 14.69804 28218 ft 407 kts 272°
2026-04-26 12:20 48.05602 14.61360 28217 ft 407 kts 272°
2026-04-26 12:20 48.05656 14.52895 28205 ft 407 kts 272°
2026-04-26 12:21 48.05708 14.44439 28211 ft 407 kts 272°
2026-04-26 12:21 48.05752 14.35978 28212 ft 407 kts 271°
2026-04-26 12:22 48.05067 14.27597 28210 ft 410 kts 255°
2026-04-26 12:22 48.02739 14.19784 28209 ft 413 kts 246°
2026-04-26 12:23 48.00197 14.12093 28202 ft 413 kts 246°
2026-04-26 12:23 47.97656 14.04414 28200 ft 413 kts 246°
2026-04-26 12:24 47.95100 13.96751 28201 ft 412 kts 246°
2026-04-26 12:24 47.92538 13.89093 28200 ft 412 kts 246°
2026-04-26 12:25 47.88693 13.77620 28199 ft 412 kts 246°
2026-04-26 12:25 47.86119 13.69974 28198 ft 412 kts 245°
2026-04-26 12:26 47.83558 13.62401 28180 ft 412 kts 245°
2026-04-26 12:26 47.80979 13.54778 28184 ft 412 kts 245°
2026-04-26 12:27 47.78400 13.47173 28186 ft 412 kts 245°
2026-04-26 12:27 47.75809 13.39554 28191 ft 413 kts 245°
2026-04-26 12:28 47.73207 13.31945 28191 ft 413 kts 245°
2026-04-26 12:28 47.70598 13.24346 28186 ft 413 kts 245°
2026-04-26 12:29 47.67990 13.16748 28205 ft 406 kts 245°
2026-04-26 12:30 47.64070 13.05368 28214 ft 415 kts 245°
2026-04-26 12:30 47.61429 12.97750 28215 ft 415 kts 245°
2026-04-26 12:31 47.57457 12.86339 28205 ft 416 kts 245°
2026-04-26 12:31 47.54805 12.78706 28210 ft 416 kts 245°
2026-04-26 12:32 47.52158 12.71109 28138 ft 416 kts 245°
2026-04-26 12:32 47.49494 12.63506 27587 ft 418 kts 245°
2026-04-26 12:33 47.48148 12.59676 27328 ft 418 kts 245°
2026-04-26 12:33 47.46803 12.55866 27063 ft 418 kts 244°
2026-04-26 12:33 47.45455 12.52056 26807 ft 418 kts 244°
2026-04-26 12:33 47.44111 12.48250 26548 ft 418 kts 244°
2026-04-26 12:34 47.42767 12.44445 26299 ft 417 kts 244°
2026-04-26 12:34 47.41450 12.40644 26045 ft 415 kts 248°
2026-04-26 12:34 47.40480 12.36657 25802 ft 411 kts 257°
2026-04-26 12:34 47.39980 12.32540 25558 ft 407 kts 266°
2026-04-26 12:35 47.39941 12.28376 25316 ft 404 kts 275°
2026-04-26 12:35 47.40289 12.24266 25076 ft 403 kts 279°
2026-04-26 12:35 47.40681 12.20171 24848 ft 402 kts 279°
2026-04-26 12:35 47.41063 12.16089 24599 ft 401 kts 279°
2026-04-26 12:36 47.41438 12.12021 24364 ft 399 kts 279°
2026-04-26 12:36 47.41809 12.07961 24132 ft 398 kts 278°
2026-04-26 12:36 47.42178 12.03911 23896 ft 397 kts 279°
2026-04-26 12:36 47.42548 11.99868 23647 ft 396 kts 279°
2026-04-26 12:37 47.42870 11.95837 23367 ft 395 kts 275°
2026-04-26 12:37 47.42837 11.91782 23097 ft 395 kts 266°
2026-04-26 12:37 47.42472 11.87779 22476 ft 388 kts 263°
2026-04-26 12:37 47.42073 11.83854 21533 ft 385 kts 263°
2026-04-26 12:38 47.41682 11.80023 20646 ft 380 kts 262°
2026-04-26 12:38 47.41290 11.76191 19772 ft 376 kts 262°
2026-04-26 12:38 47.40903 11.72396 18932 ft 371 kts 262°
2026-04-26 12:38 47.40520 11.68644 17992 ft 368 kts 262°
2026-04-26 12:39 47.40141 11.64931 17059 ft 363 kts 262°
2026-04-26 12:39 47.39766 11.61270 16188 ft 359 kts 262°
2026-04-26 12:39 47.39395 11.57650 15280 ft 355 kts 262°
2026-04-26 12:39 47.39027 11.54077 14458 ft 350 kts 262°
2026-04-26 12:40 47.38659 11.50516 13845 ft 350 kts 262°
2026-04-26 12:40 47.38293 11.46986 13347 ft 347 kts 261°
2026-04-26 12:40 47.37928 11.43483 13148 ft 345 kts 261°
2026-04-26 12:40 47.37560 11.39970 13163 ft 346 kts 261°
2026-04-26 12:41 47.37191 11.36462 13165 ft 346 kts 261°
2026-04-26 12:41 47.36820 11.32948 13169 ft 347 kts 261°
2026-04-26 12:41 47.36453 11.29479 13166 ft 347 kts 261°
2026-04-26 12:41 47.36082 11.25975 13168 ft 346 kts 261°
2026-04-26 12:42 47.35711 11.22478 13185 ft 345 kts 261°
2026-04-26 12:42 47.35339 11.18969 13186 ft 345 kts 261°
2026-04-26 12:42 47.34967 11.15472 13189 ft 345 kts 261°
2026-04-26 12:42 47.34594 11.11975 13190 ft 345 kts 261°
2026-04-26 12:43 47.34220 11.08477 13189 ft 345 kts 261°
2026-04-26 12:43 47.33844 11.04982 13185 ft 343 kts 261°
2026-04-26 12:43 47.33467 11.01503 13188 ft 345 kts 261°
2026-04-26 12:43 47.33086 10.98009 13192 ft 346 kts 261°
2026-04-26 12:44 47.32705 10.94506 13194 ft 346 kts 261°
2026-04-26 12:44 47.32322 10.91002 13193 ft 346 kts 261°
2026-04-26 12:44 47.31946 10.87504 13190 ft 345 kts 262°
2026-04-26 12:44 47.32014 10.84003 13193 ft 345 kts 281°
2026-04-26 12:45 47.32594 10.80568 13195 ft 345 kts 284°
2026-04-26 12:45 47.33219 10.77153 13197 ft 346 kts 284°
2026-04-26 12:45 47.33839 10.73723 13195 ft 344 kts 284°
2026-04-26 12:45 47.34433 10.70412 13195 ft 325 kts 284°
2026-04-26 12:46 47.34963 10.67247 13202 ft 309 kts 278°
2026-04-26 12:46 47.35041 10.64168 13202 ft 294 kts 268°
2026-04-26 12:46 47.35007 10.61231 13207 ft 280 kts 268°
2026-04-26 12:46 47.34972 10.58424 13202 ft 267 kts 268°
2026-04-26 12:47 47.34940 10.55735 13199 ft 257 kts 268°
2026-04-26 12:47 47.34835 10.53202 13197 ft 244 kts 256°
2026-04-26 12:47 47.34047 10.51040 13206 ft 236 kts 226°
2026-04-26 12:47 47.32671 10.49799 13205 ft 239 kts 198°
2026-04-26 12:48 47.31015 10.49745 13207 ft 244 kts 166°
2026-04-26 12:48 47.29529 10.50988 13210 ft 247 kts 135°
2026-04-26 12:48 47.28705 10.53161 13203 ft 250 kts 103°
2026-04-26 12:48 47.28611 10.55727 13205 ft 252 kts 90°
2026-04-26 12:49 47.28664 10.58306 13209 ft 253 kts 86°
2026-04-26 12:49 47.28791 10.60888 13211 ft 252 kts 86°
2026-04-26 12:49 47.28916 10.63509 13208 ft 261 kts 86°
2026-04-26 12:49 47.29048 10.66205 13027 ft 267 kts 86°
2026-04-26 12:50 47.29186 10.68961 12482 ft 270 kts 86°
2026-04-26 12:50 47.29325 10.71700 12057 ft 266 kts 86°
2026-04-26 12:50 47.29458 10.74371 11652 ft 260 kts 86°
2026-04-26 12:50 47.29591 10.77026 11245 ft 258 kts 87°
2026-04-26 12:51 47.29722 10.79644 10836 ft 254 kts 86°
2026-04-26 12:51 47.29851 10.82219 10425 ft 251 kts 88°
2026-04-26 12:51 47.29980 10.84805 9874 ft 254 kts 87°
2026-04-26 12:51 47.30110 10.87382 9436 ft 249 kts 86°
2026-04-26 12:52 47.30236 10.89906 9041 ft 244 kts 86°
2026-04-26 12:52 47.30356 10.92361 8659 ft 234 kts 86°
2026-04-26 12:52 47.30470 10.94685 8312 ft 219 kts 86°
2026-04-26 12:52 47.30574 10.96840 7977 ft 204 kts 86°
2026-04-26 12:53 47.30669 10.98868 7654 ft 193 kts 85°
2026-04-26 12:53 47.30761 11.00787 7350 ft 185 kts 85°
2026-04-26 12:53 47.30851 11.02672 7062 ft 184 kts 84°
2026-04-26 12:53 47.30940 11.04552 6772 ft 185 kts 84°
2026-04-26 12:54 47.30970 11.06449 6474 ft 188 kts 93°
2026-04-26 12:54 47.30664 11.08352 6158 ft 193 kts 110°
2026-04-26 12:54 47.30111 11.10163 5844 ft 195 kts 113°
2026-04-26 12:54 47.29720 11.11357 5628 ft 195 kts 115°
2026-04-26 12:55 47.29134 11.13118 5319 ft 187 kts 114°
2026-04-26 12:55 47.28387 11.15344 4937 ft 176 kts 114°
2026-04-26 12:55 47.28039 11.16380 4775 ft 166 kts 115°
2026-04-26 12:55 47.27542 11.17866 4504 ft 157 kts 115°
2026-04-26 12:56 47.27079 11.19259 4266 ft 147 kts 115°
2026-04-26 12:56 47.26644 11.20566 4026 ft 139 kts 112°
2026-04-26 12:56 47.26227 11.21830 3823 ft 137 kts 113°
2026-04-26 12:56 47.25813 11.23085 3599 ft 134 kts 114°
2026-04-26 12:57 47.25416 11.24318 3396 ft 132 kts 110°
2026-04-26 12:57 47.25202 11.25632 3179 ft 132 kts 95°
2026-04-26 12:57 47.25192 11.26977 2979 ft 131 kts 85°
2026-04-26 12:58 47.25498 11.29614 2515 ft 130 kts 83°
2026-04-26 12:58 47.25640 11.30928 2304 ft 130 kts 78°
2026-04-26 12:58 47.25782 11.32230 2057 ft 128 kts 79°
2026-04-26 12:58 47.25925 11.33521 1917 ft 126 kts 79°
2026-04-26 12:59 47.26030 11.34498 1904 ft 55 kts 81°
2026-04-26 12:59 47.26056 11.34727 1900 ft 1 kts 82°
2026-04-26 12:59 47.26061 11.34779 1904 ft 12 kts 83°
2026-04-26 12:59 47.26083 11.34971 1895 ft 23 kts 79°
2026-04-26 13:00 47.26106 11.35198 1904 ft 16 kts 82°
2026-04-26 13:00 47.26077 11.35264 1904 ft 9 kts 161°
2026-04-26 13:00 47.26016 11.35269 1904 ft 9 kts 172°
2026-04-26 13:00 47.25947 11.35280 1895 ft 10 kts 174°
2026-04-26 13:01 47.25902 11.35270 1904 ft 0 kts 238°
2026-04-26 13:01 47.25897 11.35226 1904 ft 8 kts 263°
2026-04-26 13:01 47.25896 11.35212 1904 ft 1 kts 263°
2026-04-26 13:02 47.25895 11.35199 1904 ft 2 kts 262°
2026-04-26 13:02 47.25893 11.35177 1894 ft 0 kts 261°
2026-04-26 13:04 47.25889 11.35141 1901 ft 7 kts 261°
2026-04-26 13:04 47.25882 11.35078 1904 ft 5 kts 261°
2026-04-26 13:05 47.25865 11.35039 1899 ft 5 kts 205°
2026-04-26 13:05 47.25829 11.35051 1897 ft 6 kts 155°
2026-04-26 13:05 47.25813 11.35053 1902 ft 0 kts 177°